小惑星2010 LN135

2010 LN135

English version
Home page
Updated on May 11, 2024

---------------------------------------------------------------------

・ プロフィール

小惑星2010 LN135の彗星活動は、2010年6月〜7月にPalomar Transient Factory surveyにて捉えられた(Main-belt comets in the Palomar Transient Factory survey . I. The search for extendedness)。

・ 軌道要素

Epoch 2011 June 8.0 TT = JDT 2455720.5                                          
T 2011 May 22.67423 TT                                  Rudenko                 
q   1.7409037            (2000.0)            P               Q                  
z  -0.0006318      Peri.  181.55798     +0.99494566     -0.06417446             
 +/-0.0000242      Node   184.91516     +0.09909126     +0.75194637             
e   1.0010998      Incl.   64.34192     +0.01624954     -0.65609320             
H   14.0                                                                        
>From 35 observations 2010 June 3-Oct. 19, mean residual 0".8.                   

・ 光度変化

        H = 14.0  G = 0.15

---------------------------------------------------------------------

軌道要素はM.P.E.C. 2024-H77に掲載されたものです。
光度グラフはComet for Windowsで作成したものです。

---------------------------------------------------------------------

Copyright(C) Seiichi Yoshida (comet@aerith.net). All rights reserved.